Weather in Kindelya

Russia / Orenburg Oblast     51°37′24″N   52°59′24″E
temp.,
°C
wind,
m/s
gust,
m/s
humid.,
%
clouds,
%
prec.,
mm/h
press.,
hPa
HPBL,
m
4 march, thu
thu423:00−3wnw4109298 0.3 1006318
02:00−7wnw479493 0.1 1007113
05:00−11wnw479550 0.1 100992
08:00−13w479685 0.0 1011111
11:00−9wsw599467 0.0 1012314
14:00−5sw7128954 0.0 1011519
17:00−2sw9159276 0.1 1010944
20:00−1sw101693100 0.3 1008880
5 march, fri
fri523:00−1wsw101795100 0.8 1008832
02:00−2sw91880100 0.1 1008616
05:00−3sw91783100 0.1 1008544
08:00−3sw91686100 0.0 1008554
11:00−1sw101791100 0.0 1007705
14:000sw1016100100 1.9 1006866
17:00+1wsw91599100 2.9 1007632
20:00+1wsw51199100 1.6 1008490
6 march, sat
sat623:00+1w71298100 2.4 1011545
02:00−1nnw4598100 0.3 1012285
05:00−5nnw2294100 0.4 101421
08:00−9n239299 0.0 101521
11:00−6nne1285100 0.0 1015118
14:00−3ene2280100 0.0 1015262
17:00−3ene3484100 0.0 1013352
20:00−4ne4597100 1.3 1011208
7 march, sun
sun723:00−5nne5996100 2.8 1010337
02:00−6n5995100 1.2 1008383
05:00−8n61094100 2.0 1009355
08:00−12nnw61186100 0.1 1011320
11:00−13nnw588587 0.1 1014334
14:00−11nnw57830 0.0 1016415
17:00−11wnw45850 0.0 1017346
20:00−15sw34910 0.0 101723
8 march, mon
mon823:00−16ssw47900 0.0 101796
02:00−14ssw510912 0.0 1015192
05:00−8ssw8158451 0.0 1013539
08:00−5sw91784100 0.0 1011763
11:00−4sw101688100 0.1 1010827
14:00−2sw91488100 0.1 1011875
17:00−2sw91493100 0.3 10101024
20:00−2ssw91782100 0.2 1009910